TimeCDT,TemperatureF,Dew PointF,Humidity,Sea Level PressureIn,VisibilityMPH,Wind Direction,Wind SpeedMPH,Gust SpeedMPH,PrecipitationIn,Events,Conditions,WindDirDegrees,DateUTC
12:54 AM,68.0,61.0,78,29.96,10.0,SSE,3.5,-,N/A,,Clear,160,2013-05-28 05:54:00
1:54 AM,68.0,61.0,78,29.97,10.0,SSE,4.6,-,N/A,,Clear,150,2013-05-28 06:54:00
2:54 AM,66.9,61.0,81,29.96,10.0,SSE,3.5,-,N/A,,Clear,160,2013-05-28 07:54:00
3:54 AM,69.1,62.1,78,29.94,10.0,South,8.1,-,N/A,,Clear,170,2013-05-28 08:54:00
4:54 AM,69.1,62.1,78,29.95,10.0,South,8.1,-,N/A,,Partly Cloudy,170,2013-05-28 09:54:00
5:54 AM,70.0,62.1,76,29.97,10.0,South,10.4,-,N/A,,Clear,170,2013-05-28 10:54:00
6:54 AM,71.1,62.1,73,30.00,10.0,South,6.9,-,N/A,,Clear,190,2013-05-28 11:54:00
7:54 AM,73.0,63.0,71,30.01,10.0,SSW,10.4,18.4,N/A,,Clear,200,2013-05-28 12:54:00
8:54 AM,75.9,64.0,67,29.99,10.0,SSW,16.1,23.0,N/A,,Clear,200,2013-05-28 13:54:00
9:54 AM,79.0,66.0,64,29.99,10.0,SW,19.6,27.6,N/A,,Clear,220,2013-05-28 14:54:00
10:54 AM,81.0,66.9,62,29.98,10.0,SSW,17.3,25.3,N/A,,Partly Cloudy,200,2013-05-28 15:54:00
11:54 AM,82.0,64.0,54,29.97,10.0,SSW,18.4,31.1,N/A,,Clear,210,2013-05-28 16:54:00
12:54 PM,82.9,66.0,56,29.99,10.0,SW,17.3,25.3,N/A,,Mostly Cloudy,230,2013-05-28 17:54:00
1:54 PM,86.0,64.9,49,29.97,10.0,SSW,19.6,25.3,N/A,,Scattered Clouds,210,2013-05-28 18:54:00
2:54 PM,84.9,62.1,46,29.95,10.0,SW,19.6,26.5,N/A,,Clear,220,2013-05-28 19:54:00
3:54 PM,84.0,64.0,51,29.94,10.0,SSW,16.1,25.3,N/A,,Partly Cloudy,200,2013-05-28 20:54:00
4:54 PM,84.9,63.0,48,29.93,10.0,SSW,16.1,24.2,N/A,,Partly Cloudy,200,2013-05-28 21:54:00
5:54 PM,84.0,62.1,47,29.91,10.0,SSW,16.1,23.0,N/A,,Clear,200,2013-05-28 22:54:00
6:54 PM,82.0,61.0,49,29.91,10.0,SSW,15.0,21.9,N/A,,Clear,200,2013-05-28 23:54:00
7:54 PM,81.0,61.0,50,29.92,10.0,South,9.2,-,N/A,,Clear,190,2013-05-29 00:54:00
8:54 PM,79.0,57.9,48,29.91,10.0,South,13.8,-,N/A,,Clear,180,2013-05-29 01:54:00
9:54 PM,78.1,55.0,45,29.93,10.0,SSW,10.4,-,N/A,,Clear,200,2013-05-29 02:54:00
10:54 PM,73.9,57.0,55,29.96,10.0,SSW,5.8,-,N/A,,Clear,200,2013-05-29 03:54:00
11:54 PM,71.1,57.0,61,29.99,10.0,SW,4.6,-,N/A,,Clear,220,2013-05-29 04:54:00